Regional Weather Roundup
Issued by NWS

Home | Current Version | Previous Version | Text Only | Print | Product List | Glossary On
Versions: 1 2 3 4 5 6 7 8 9 10 11 12 13 14 15 16 17 18 19 20 21 22 23 24 25 26 27 28 29 30 31 32 33 34 35 36 37 38 39 40 41 42 43 44 45 46 47 48 49 50
000
ASUS44 KLIX 202213
RWRLA
LOUISIANA WEATHER ROUNDUP
NATIONAL WEATHER SERVICE NEW ORLEANS LA
400 PM CST MON NOV 20 2017

NOTE: "FAIR" INDICATES FEW OR NO CLOUDS BELOW 12,000 FEET WITH NO
      SIGNIFICANT WEATHER AND/OR OBSTRUCTIONS TO VISIBILITY.
      SKY/WX - SKY CONDITION AND SIGNIFICANT WEATHER.
      TMP - AIR TEMPERATURE.    DP   - DEWPOINT TEMPERATURE.
      RH  - RELATIVE HUMIDITY.  PRES - PRESSURE.
      HX  - HEAT INDEX.         WCI  - WIND CHILL INDEX.

*  THESE STATIONS ARE NOT NWS OR FAA STATIONS AND ARE NOT UNDER
   NWS QUALITY CONTROL.

LAZ040-048-061>063-065-066-069-202300-
SOUTHEAST LOUISIANA

CITY           SKY/WX    TMP DP  RH WIND       PRES   REMARKS
N.O. INTL ARPT PTSUNNY   60  41  49 NE5       30.13S
N.O. LAKEFRONT SUNNY     60  44  55 N8        30.14R
N.O. DOWNTOWN* FAIR      60  42  51 N6        30.13F
RESERVE*       FAIR      60  42  49 N5        30.13S
SLIDELL        SUNNY     59  34  39 CALM      30.13F
BATON ROUGE    CLOUDY    59  35  40 W5        30.12S
BOOTHVILLE     SUNNY     63  53  70 NE9       30.12F
BELLE CHASSE   PTSUNNY   60  49  66 NE5       30.13S
BOGALUSA*      NOT AVBL
GALLIANO*      CLEAR     60  46  59 N3        30.13R
NEW ROADS*     FAIR      57  35  43 N3        30.13S
GONZALES*      FAIR      60  37  42 CALM      30.12S
HAMMOND*       SUNNY     55  32  41 CALM      30.13S
HOUMA*         SUNNY     63  43  48 CALM      30.13R
PORT FOURCHON* NOT AVBL

$$

LAZ041-044-053-054-202300-
SOUTHWEST LOUISIANA

CITY           SKY/WX    TMP DP  RH WIND       PRES   REMARKS
LAKE CHARLES   MOSUNNY   58  35  42 S5        30.12F
LAFAYETTE      MOSUNNY   60  34  37 S3        30.12F
PATTERSON      MOSUNNY   61  46  57 W7        30.13F
SALT POINT       N/A      1  32 100 VRB3      30.12F
NEW IBERIA     MOSUNNY   59  36  42 SW7       30.13F
CHENAULT AIRPK MOSUNNY   59  32  36 SE5       30.12F

$$

LAZ027-028-202300-
CENTRAL LOUISIANA

CITY           SKY/WX    TMP DP  RH WIND       PRES   REMARKS
FORT POLK      CLOUDY    60  30  32 S7        30.09F
ALEXANDRIA INT SUNNY     61  28  28 CALM      30.10F
ALEXANDRIA     SUNNY     60  27  28 CALM      30.11F

$$

LAZ001-002-202300-
NORTHWEST LOUISIANA

CITY           SKY/WX    TMP DP  RH WIND       PRES   REMARKS
SHREVEPORT     MOSUNNY   61  30  31 S10       30.07F
BARKSDALE AFB  SUNNY     60  29  31 S9        30.07F
DTN SHREVEPORT CLOUDY    61  32  33 S7        30.08F

$$

LAZ014-016-202300-
NORTHEAST LOUISIANA

CITY           SKY/WX    TMP DP  RH WIND       PRES   REMARKS
MONROE         SUNNY     57  30  35 S6        30.12F
TALLULAH       CLOUDY    54  30  40 S3        30.12F

$$




USA.gov is the U.S. government's official web portal to all federal, state and local government web resources and services.